Starlink 1392

operational
NORAD ID: 45677 Int'l Des: 2020-035 Owner: SPXS Country: US Constellation: starlink
LEOCIRCULARSTARLINK_TYPE

关于 Starlink 1392

正在加载描述...

实时位置

正在加载3D地球...

即将过境

高度历史

Altitude vs Time

uPlot chart will show altitude changes over time

两行轨道根数

1 45677U 20035W 25259.02089195 .00002260 00000-0 17049-3 0 9990
2 45677 53.0557 130.7395 0001470 94.4885 265.6272 15.06419075292409
Epoch: Sep 16, 2025 • Age: 12 hours

当前状态

高度 556.7 km
速度 7.58 km/s
星下点 -29.59°S, 148.73°E
发射日期 Jun 4, 2020
运行时间 5.2 years
类型 internet

技术详情

分类 Payload
质量 260.00 kg
干质量 248.00 kg
总质量 260.00 kg
长度 0.20 m
直径 2.80 m
跨度 9.00 m
形状 Box + pan
制造商 SPXS
平台类型 Starlink
阶段状态 In Orbit
所有者/国家 SPXS/US

大型星座

Loading constellations...